{"data":{"norad_id":48621,"epoch":"2026-05-25T03:47:45.271968Z","epoch_age_seconds":60863,"freshness":"FRESH","line1":"1 48621U 21043A   26145.15816287 -.00000119  00000+0 -34458-4 0  9997","line2":"2 48621  66.0003   2.0350 0011343 271.9172  88.0597 13.83373649253362","mean_motion":13.83373649,"eccentricity":0.0011343,"inclination_deg":66.0003,"raan_deg":2.035,"arg_perigee_deg":271.9172,"mean_anomaly_deg":88.0597,"bstar":-3.4458e-5,"rev_number":25336,"period_min":104.09335186057,"perigee_km":943.63064111675,"apogee_km":960.25966548973,"semimajor_km":7330.0821533032,"source":"CELESTRAK","updated_at":"2026-05-25T13:37:56.900388Z"}}